Weather History for Binghamton, NY

Change the Weather History Date:

Tuesday, October 9, 2012

  Actual Average Record
Temperature  
Mean Temperature 47 °F 51 °F  
Max Temperature 57 °F 59 °F 79 °F (2007)
Min Temperature 37 °F 42 °F 27 °F (2001)
Degree Days  
Heating Degree Days 18 14  
Month to date heating degree days 104 117  
Since 1 July heating degree days 318 374  
Cooling Degree Days 0 0  
Month to date cooling degree days 1 0  
Year to date cooling degree days 548 379  
Moisture  
Dew Point 39 °F    
Average Humidity 72    
Maximum Humidity 93    
Minimum Humidity 51    
Precipitation  
Precipitation T in 0.11 in 2.55 in (1976)
Month to date precipitation 0.50 1.01  
Year to date precipitation 29.80 30.85  
Snow  
Snow 0.00 in 0.10 in 1.00 in (2000)
Month to date snowfall 0.0 0.1  
Since 1 July snowfall 0.0 0.1  
Since 1 September snowfall 0.0 0.1  
Snow Depth 0.00 in    
Sea Level Pressure  
Sea Level Pressure 30.16 in    
Wind  
Wind Speed 4 mph (SSE)    
Max Wind Speed 14 mph    
Max Gust Speed 26 mph    
Visibility 10 miles    
Events Rain    
T = Trace of Precipitation, MM = Missing Value Source: NWS Daily Summary

Daily Weather History Graph

Daily Weather History Graph

Search for Another Location

Airport:

Trip Planner

Search our weather history database for the weather conditions in past years. The results will help you decide how hot, cold, wet, or windy it might be!

Date:

Astronomy

Oct. 09, 2012 Rise Set
Actual Time 7:10 AM EDT 6:31 PM EDT
Civil Twilight 6:42 AM EDT 6:59 PM EDT
Nautical Twilight 6:09 AM EDT 7:31 PM EDT
Astronomical Twilight 5:37 AM EDT 8:03 PM EDT
Moon 12:38 AM EDT (10/9) 3:02 PM EDT (10/9)
Length of Visible Light 12h 16m
Length of Day
11h 20m
Last Quarter, 37% of the Moon is Illuminated
Oct 9
Last Quarter
Oct 15
New
Oct 21
First Quarter
Oct 29
Full
Nov 6
Last Quarter

Hourly Weather History & Observations

Time (EDT) Temp. Windchill Dew Point Humidity Pressure Visibility Wind Dir Wind Speed Gust Speed Precip Events Conditions
12:53 AM 39.0 °F 36.8 °F 35.1 °F 86% 30.23 in 10.0 mi SE 3.5 mph - N/A   Overcast
1:53 AM 39.0 °F - 36.0 °F 89% 30.25 in 10.0 mi Calm Calm - N/A   Overcast
2:53 AM 39.0 °F - 35.1 °F 86% 30.23 in 10.0 mi Calm Calm - N/A   Overcast
4:53 AM 37.9 °F - 35.1 °F 89% 30.23 in 10.0 mi Calm Calm - N/A   Overcast
5:53 AM 39.0 °F - 36.0 °F 89% 30.24 in 10.0 mi Calm Calm - N/A   Overcast
6:53 AM 39.9 °F - 37.0 °F 89% 30.24 in 10.0 mi Calm Calm - N/A   Overcast
7:53 AM 41.0 °F - 37.0 °F 86% 30.24 in 10.0 mi Calm Calm - N/A   Overcast
8:53 AM 43.0 °F - 37.9 °F 82% 30.24 in 10.0 mi Calm Calm - N/A   Overcast
9:53 AM 46.9 °F - 39.9 °F 77% 30.23 in 10.0 mi SE 6.9 mph - N/A   Overcast
10:53 AM 46.9 °F - 39.0 °F 74% 30.22 in 10.0 mi SSE 6.9 mph - N/A   Overcast
11:53 AM 48.9 °F - 39.9 °F 71% 30.20 in 10.0 mi Variable 3.5 mph - N/A   Overcast
12:53 PM 54.0 °F - 39.9 °F 59% 30.18 in 10.0 mi Variable 3.5 mph - N/A   Partly Cloudy
1:53 PM 55.0 °F - 37.9 °F 53% 30.14 in 10.0 mi Calm Calm - N/A   Clear
2:53 PM 55.0 °F - 37.9 °F 53% 30.13 in 10.0 mi Variable 4.6 mph - N/A   Mostly Cloudy
3:53 PM 55.0 °F - 37.9 °F 53% 30.12 in 10.0 mi SSE 8.1 mph - N/A   Overcast
4:53 PM 53.1 °F - 37.0 °F 55% 30.12 in 10.0 mi South 5.8 mph - N/A   Overcast
5:53 PM 53.1 °F - 39.0 °F 59% 30.12 in 10.0 mi SSE 8.1 mph - N/A   Overcast
6:27 PM 51.8 °F - 39.2 °F 62% 30.09 in 10.0 mi South 6.9 mph - N/A   Overcast
6:53 PM 50.0 °F - 41.0 °F 71% 30.11 in 10.0 mi SSE 5.8 mph - N/A   Overcast
7:53 PM 50.0 °F - 42.1 °F 74% 30.10 in 10.0 mi SSE 5.8 mph - N/A   Overcast
8:53 PM 50.0 °F - 42.1 °F 74% 30.10 in 10.0 mi South 5.8 mph - N/A   Overcast
9:53 PM 48.9 °F - 43.0 °F 80% 30.09 in 10.0 mi South 9.2 mph - N/A   Overcast
10:38 PM 48.2 °F - 44.6 °F 87% 30.07 in 5.0 mi South 6.9 mph - 0.00 in Rain Light Rain
10:53 PM 48.0 °F - 45.0 °F 89% 30.08 in 10.0 mi South 6.9 mph - 0.00 in   Overcast
11:24 PM 48.2 °F - 44.6 °F 87% 30.05 in 10.0 mi South 4.6 mph - N/A   Overcast
11:53 PM 48.0 °F - 46.0 °F 93% 30.06 in 10.0 mi South 5.8 mph - N/A   Overcast